ARIANE 42P DEB, 44508

Orbit data source: Space-Track

ARIANE 42P DEB, 44508 is space debris in LEO originally from a launch on Mon, 10 Aug 1992 UTC launched from the French Guiana (FRGUI). Debris objects in space refer to the collection of defunct objects orbiting the Earth. Examples of debris include non-operational satellites, rocket bodies, and fragments generated from explosions, collisions, or faulty payload assembly.

Loading next visibility...
Identifier
44508, 1992-052F
Orbit
LEO
Country
Flag of FRFR
Related business
Manufacturer
ArianeGroup
Mission
Spacecraft
Bus & Motor
Unknown
Mass
Unknown
Launch date (UTC)
1992-08-10 (33 years ago)
Launch vehicle
Unknown
Launch site
French Guiana (FRGUI)
Object type
Payload
Rocket body
Debris
Shape & HBR
Unknown shape, 0.2 m
Radar Cross Section
Small (<0.1 m²)

Expand to show TLE details & history
Last TLE update: 1 day ago

TLE from 1 day ago
0 ARIANE 42P DEB
1 44508U 92052F   26036.00199337  .00001659  00000-0  60878-2 0  9990
2 44508  66.0162 289.3473 0394510 343.7991  15.0695 12.72676649 86345
Epoch: 2026-02-05T00:02Z
TLE epoch observation values (Epoch: 2026-02-05T00:02:52.227Z)
Latitude
-0.00005°
Longitude
153.46918°
Altitude
1,078.599 km
Speed
7.451 km/s
True Right ascension
19h 17m 23s
True Declination
0° 00' 00"
Sunlit
Object was in daylight at epoch
Visualization orbit readout
Latitude
Unknown
Longitude
Unknown
Altitude
Unknown
Speed
Unknown
Apparent Right ascension
Unknown
Apparent Declination
Unknown
Sunlit
N/A
Visualization observer readout
Local Sidereal Time
10:27:46
Azimuth
Unknown
Elevation
Unknown
Doppler factor
Unknown
Orbital elements
Apogee altitude
1,675.281 km
Perigee altitude
1,063.967 km
Semi-major axis
7,747.761 km
Eccentricity
0.03945
Inclination
66.0162°
RAAN
289.3473°
Arg. of periapsis
343.7991°
True anomaly
16.3034°
Mean anomaly
15.0695°
Eccentric anomaly
15.68041°
Mean motion
3.18258 °/min
Orbital period
113.12 mins
BSTAR
0.0060878
Loading maneuver chart data...
Computing Atmospheric mass density...
Loading historical data...
Loading historical data...
Loading historical data...
Loading historical data...
Loading historical data...
Loading historical data...
Loading historical data...

Documentation

Showing up to 5 results
|